Weather History for Corpus Christi, TX

Change the Weather History Date:

Thursday, July 10, 2014

  Actual Average Record
Temperature  
Mean Temperature 80 °F 84 °F  
Max Temperature 87 °F 93 °F 98 °F (1975)
Min Temperature 73 °F 75 °F 68 °F (1905)
Degree Days  
Heating Degree Days 0 0  
Month to date heating degree days 0 0  
Since 1 June heating degree days 0 0  
Since 1 July heating degree days 0 0  
Cooling Degree Days 15 19  
Month to date cooling degree days 191 186  
Year to date cooling degree days 1604 1549  
Since 1 June cooling degree days 798 708  
Growing Degree Days 30 (Base 50)    
Moisture  
Dew Point 72 °F    
Average Humidity 76    
Maximum Humidity 94    
Minimum Humidity 57    
Precipitation  
Precipitation 0.17 in 0.12 in 1.71 in (2002)
Month to date precipitation 0.46 1.19  
Year to date precipitation 8.97 14.82  
Snow  
Snow 0.00 in - - ()
Month to date snowfall 0.0  
Since 1 June snowfall 0.0  
Since 1 July snowfall 0.0  
Snow Depth 0.00 in    
Sea Level Pressure  
Sea Level Pressure 30.02 in    
Wind  
Wind Speed 8 mph (SE)    
Max Wind Speed 37 mph    
Max Gust Speed 41 mph    
Visibility 10 miles    
Events Rain , Thunderstorm    
T = Trace of Precipitation, MM = Missing Value Source: NWS Daily Summary

Daily Weather History Graph

Daily Weather History Graph

Search for Another Location

Airport:

Trip Planner

Search our weather history database for the weather conditions in past years. The results will help you decide how hot, cold, wet, or windy it might be!

Date:

Astronomy

Jul. 10, 2014 Rise Set
Actual Time 6:41 AM CDT 8:29 PM CDT
Civil Twilight 6:15 AM CDT 8:55 PM CDT
Nautical Twilight 5:43 AM CDT 9:27 PM CDT
Astronomical Twilight 5:10 AM CDT 10:00 PM CDT
Moon 6:48 PM CDT (7/10) 4:49 AM CDT (7/10)
Length of Visible Light 14h 40m
Length of Day
13h 47m
Waxing Gibbous, 95% of the Moon is Illuminated
Jul 10
Waxing Gibbous
Jul 12
Full
Jul 18
Last Quarter
Jul 26
New
Aug 3
First Quarter

Hourly Weather History & Observations

Time (CDT) Temp. Heat Index Dew Point Humidity Pressure Visibility Wind Dir Wind Speed Gust Speed Precip Events Conditions
12:51 AM 75.9 °F - 73.0 °F 91% 30.01 in 10.0 mi SSE 5.8 mph - N/A   Mostly Cloudy
1:51 AM 77.0 °F - 73.9 °F 90% 30.01 in 10.0 mi SSE 5.8 mph - N/A   Mostly Cloudy
2:51 AM 77.0 °F - 73.4 °F 89% 29.99 in 10.0 mi SSE 5.8 mph - N/A   Mostly Cloudy
3:51 AM 77.0 °F - 73.9 °F 90% 29.97 in 10.0 mi SE 5.8 mph - N/A   Mostly Cloudy
4:51 AM 75.9 °F - 73.9 °F 94% 29.97 in 10.0 mi SE 6.9 mph - N/A   Mostly Cloudy
5:42 AM 75.9 °F - 73.9 °F 94% 30.00 in 9.0 mi South 5.8 mph - N/A Thunderstorm Mostly Cloudy
5:51 AM 75.9 °F - 73.9 °F 94% 29.99 in 9.0 mi SW 5.8 mph - N/A Thunderstorm Mostly Cloudy
5:55 AM 75.0 °F - 73.9 °F 96% 29.99 in 10.0 mi SSW 5.8 mph - N/A Thunderstorm Thunderstorm
6:16 AM 75.0 °F - 71.1 °F 87% 30.01 in 10.0 mi South 9.2 mph - N/A Thunderstorm Thunderstorm
6:51 AM 75.9 °F - 70.0 °F 82% 30.03 in 10.0 mi SSE 12.7 mph - N/A Thunderstorm Mostly Cloudy
7:26 AM 75.0 °F - 71.1 °F 87% 30.05 in 10.0 mi SSE 18.4 mph - 0.00 in Rain Light Rain
7:51 AM 73.9 °F - 70.0 °F 87% 30.06 in 10.0 mi SE 12.7 mph - 0.01 in Rain Light Rain
8:51 AM 73.9 °F - 70.0 °F 87% 30.07 in 10.0 mi SE 12.7 mph - 0.04 in Rain Light Rain
9:51 AM 75.0 °F - 71.1 °F 87% 30.06 in 10.0 mi SE 6.9 mph - 0.01 in Rain Light Rain
10:51 AM 77.0 °F - 73.0 °F 88% 30.05 in 10.0 mi South 4.6 mph - 0.01 in Rain Light Rain
11:51 AM 81.0 °F 85.2 °F 72.0 °F 74% 30.05 in 10.0 mi Calm Calm - 0.00 in   Mostly Cloudy
12:51 PM 84.0 °F 89.6 °F 72.0 °F 67% 30.06 in 10.0 mi East 12.7 mph - N/A   Mostly Cloudy
1:51 PM 84.9 °F 88.8 °F 69.1 °F 59% 30.02 in 10.0 mi East 12.7 mph - 0.00 in   Mostly Cloudy
2:51 PM 86.0 °F 90.7 °F 70.0 °F 59% 30.01 in 10.0 mi East 10.4 mph - N/A   Mostly Cloudy
3:51 PM 86.0 °F 90.1 °F 69.1 °F 57% 30.01 in 10.0 mi East 16.1 mph - N/A   Mostly Cloudy
4:22 PM 75.9 °F - 71.1 °F 85% 30.03 in 5.0 mi SE 31.1 mph 39.1 mph 0.00 in Rain Light Rain
4:51 PM 75.0 °F - 71.1 °F 87% 30.04 in 10.0 mi SSE 16.1 mph - 0.00 in Rain Light Rain
5:51 PM 75.0 °F - 73.0 °F 94% 30.03 in 9.0 mi SE 15.0 mph 24.2 mph 0.08 in Rain Rain
6:06 PM 75.0 °F - 73.0 °F 94% 30.03 in 10.0 mi SE 15.0 mph - 0.01 in Rain Light Rain
6:51 PM 73.9 °F - 70.0 °F 87% 30.00 in 10.0 mi SE 8.1 mph - 0.02 in Rain Light Rain
7:51 PM 73.9 °F - 70.0 °F 87% 29.99 in 10.0 mi SSE 5.8 mph - 0.00 in   Mostly Cloudy
8:51 PM 73.9 °F - 71.1 °F 91% 29.99 in 10.0 mi ESE 4.6 mph - N/A   Mostly Cloudy
9:51 PM 73.9 °F - 71.1 °F 91% 30.01 in 10.0 mi East 4.6 mph - N/A   Mostly Cloudy
10:51 PM 75.2 °F - 71.6 °F 89% 30.03 in 10.0 mi ESE 5.8 mph - N/A   Overcast
11:51 PM 75.9 °F - 72.0 °F 87% 30.04 in 10.0 mi ESE 4.6 mph - N/A   Overcast